• MPC Preparation (Info)

  • MPEC 2022-K15 : 2022 KD

    The following Minor Planet Electronic Circular may be linked-to from your own Web pages, but must not otherwise be redistributed electronically.

    A form allowing access to any MPEC is at the bottom of this page.


    Read MPEC 2022-K14 Read MPEC 2022-K16


    M.P.E.C. 2022-K15                                  Issued 2022 May 20, 00:36 UT
    
         The Minor Planet Electronic Circulars contain information on unusual
             minor planets and routine data on comets.  They are published
        on behalf of Division F of the International Astronomical Union by the
              Minor Planet Center, Smithsonian Astrophysical Observatory,
                              Cambridge, MA 02138, U.S.A.
    
                 Prepared using the Tamkin Foundation Computer Network
    
                                  MPC@CFA.HARVARD.EDU
                URL https://www.minorplanetcenter.net/    ISSN 1523-6714
    
                                     2022 KD                                 
    
    
    Observations:
         K22K00D* C2022 05 18.25929613 15 03.404-03 04 44.45         20.42wUEK015F52
         K22K00D  C2022 05 18.28103013 15 15.095-03 00 35.64         19.87wUEK015F52
         K22K00D  C2022 05 18.29189013 15 20.905-02 58 31.47         20.16wUEK015F52
         K22K00D  C2022 05 18.49689513 17 10.300-02 19 54.33         20.10GVEK015F52
         K22K00D  C2022 05 18.49752413 17 10.656-02 19 47.22         19.12GVEK015F52
         K22K00D KC2022 05 18.85486713 20 41.24 -01 15 42.7                VEK015203
         K22K00D KC2022 05 18.85681913 20 42.05 -01 15 19.2          19.6 GVEK015104
         K22K00D KC2022 05 18.86008213 20 43.70 -01 14 44.7          19.6 GVEK015104
         K22K00D pC2022 05 18.86425713 20 45.50 -01 14 02.1          20.3 GVEK015L01
         K22K00D pC2022 05 18.86569913 20 46.19 -01 13 46.7          20.4 GVEK015L01
         K22K00D pC2022 05 18.86714013 20 47.01 -01 13 32.2          20.2 GVEK015L01
         K22K00D pC2022 05 18.86858313 20 47.71 -01 13 16.2          20.3 GVEK015L01
         K22K00D KC2022 05 18.86978213 20 48.62 -01 13 01.0          19.6 GVEK015104
         K22K00D pC2022 05 18.87002413 20 48.50 -01 13 00.7          20.4 GVEK015L01
         K22K00D KC2022 05 18.87344813 20 50.76 -01 12 24.6          19.6 GVEK015203
         K22K00D 6C2022 05 18.91472413 21 13.082-01 04 51.20         20.6 GVEK015Z84
         K22K00D 6C2022 05 18.91627313 21 13.840-01 04 34.83         20.7 GVEK015Z84
         K22K00D KC2022 05 18.97847913 21 50.905-00 51 21.48         19.7 GXEK015Y00
         K22K00D KC2022 05 18.99017813 21 56.625-00 49 18.89         20.0 GXEK015Y00
         K22K00D KC2022 05 19.09626013 22 54.39 -00 33 13.1          19.8 VuEK015H21
         K22K00D KC2022 05 19.09905713 22 55.77 -00 32 44.4          19.8 VuEK015H21
         K22K00D KC2022 05 19.10120013 22 56.82 -00 32 22.4          19.9 VuEK015H21
         K22K00D KC2022 05 19.16446 13 23 31.07 -00 21 14.9          20.7 RoEK015691
         K22K00D KC2022 05 19.17112 13 23 34.27 -00 20 06.3          20.4 RoEK015691
         K22K00D KC2022 05 19.17778 13 23 37.52 -00 18 59.0          20.4 RoEK015691
         K22K00D KC2022 05 19.19301 13 23 42.76 -00 16 36.2          19.4 RqEK015H36
         K22K00D KC2022 05 19.19892 13 23 45.59 -00 15 37.0          19.3 RqEK015H36
         K22K00D KC2022 05 19.20484 13 23 48.49 -00 14 36.1          19.3 RqEK015H36
         K22K00D KC2022 05 19.24501513 24 09.738-00 07 33.28         19.91GVEK015I52
         K22K00D KC2022 05 19.24554513 24 09.886-00 07 29.86               VEK015I52
         K22K00D KC2022 05 19.24607513 24 10.184-00 07 24.20               VEK015I52
         K22K00D KC2022 05 19.24660413 24 10.512-00 07 16.90         19.74GVEK015I52
         K22K00D KC2022 05 19.94577 13 30 05.53 +01 45 42.5          20.0 GVEK015204
         K22K00D KC2022 05 19.96653 13 30 14.99 +01 48 55.0                VEK015204
    
    Observer details:
    104 San Marcello Pistoiese.  Observers P. Bacci, M. Maestripieri.  Measurers
        P. Bacci, L. Tesi, G. Fagioli.  0.60-m F4 Reflector + CCD.
    203 GiaGa Observatory.  Observers S. Foglia, G. Galli.  Measurer G. Galli.
        0.36-m f/5.76 Schmidt-Cassegrain + CCD.
    204 Schiaparelli Observatory.  Observer L. Buzzi.  0.84-m f/3.5 reflector +
        CCD.
    691 Steward Observatory, Kitt Peak-Spacewatch.  Observer T. H. Bressi.  0.9-m
        f/3 reflector + CCD.
    F52 Pan-STARRS 2, Haleakala.  Observers J. Bulger, T. Lowe, A. Schultz, I.
        Smith, K. Chambers, T. Dukes.  Measurers K. Chambers, S. Chastel, T. de
        Boer, J. Fairlamb, H. Gao, M. Huber, C.-C. Lin, E. Magnier, Y.
        Ramanjooloo, R. Wainscoat, R. Weryk.  1.8-m Ritchey-Chretien + CCD.
    H21 Astronomical Research Observatory, Westfield.  Observer R. Holmes.
        Measurers T. Linder, R. Holmes, L. Horn.  0.76-m f/3.0 astrograph + CCD.
    H36 Sandlot Observatory, Scranton.  Observer G. Hug.  .56 meter Reflector +
        CCD.
    I52 Steward Observatory, Mt. Lemmon Station.  Observer H. Groeller.  Measurers
        E. J. Christensen, D. Fay, J. B. Fazekas, D. C. Fuls, A. R. Gibbs, A. D.
        Grauer, H. Groeller, J. K. Hogan, R. A. Kowalski, S. M. Larson, G. J.
        Leonard, D. Rankin, R. L. Seaman, A. Serrano, F. C. Shelly, K. W.
        Wierzchos.  1.0-m prime focus + CCD.
    L01 Visnjan Observatory, Tican.  Observer K. Korlevic.  1.0-m f/2.9 reflector
        + CCD.
    Y00 SONEAR Observatory, Oliveira.  Observer C. Jacques.  0.28-m f/2.2 0.28-m
        f/2.2 reflector + CCD.
    Z84 Calar Alto-Schmidt.  Observers M. Micheli, L. Conversi.  Measurer R.
        Kresken.  0.8-m f/3 Schmidt + CCD.
    
    Orbital elements:
    2022 KD                                                  Earth MOID = 0.0231 AU
    Epoch 2022 Jan. 21.0 TT = JDT 2459600.5                 Veres                   
    M 332.75797              (2000.0)            P               Q                  
    n   0.89628835     Peri.  263.58315     -0.71272129     -0.67030877             
    a   1.0653792      Node   234.09417     +0.70090751     -0.66900091             
    e   0.1698424      Incl.   14.78306     +0.02751406     -0.32112916             
    P   1.10           H   24.66          G   0.15           U   7                  
    Residuals in seconds of arc
    220518 F52  0.0   0.2-    220518 104  0.8-  0.4+    220519 691  0.3+  0.6-
    220518 F52  0.1+  0.1-    220518 L01  0.8+  0.2+    220519 H36  0.5+  0.0
    220518 F52  0.1+  0.0     220518 203  0.1+  0.3+    220519 H36  0.2-  1.3-
    220518 F52  0.0   0.1-    220518 Z84  0.3+  0.1-    220519 H36  0.1+  0.9-
    220518 F52  0.2+  0.0     220518 Z84  0.0   0.1-    220519 I52  0.0   0.2-
    220518 203  0.5-  0.2+    220518 Y00  0.0   0.2+    220519 I52  1.6-  2.2-
    220518 104  0.3-  0.4+    220518 Y00  0.3-  0.1+    220519 I52  0.9-  1.9-
    220518 104  0.5-  0.0     220519 H21  0.3+  0.4+    220519 I52  0.2+  0.0
    220518 L01  0.1-  0.2+    220519 H21  0.3+  0.1+    220519 204  0.1-  0.3+
    220518 L01  0.8-  0.3+    220519 H21  0.2+  0.1-    220519 204  0.4+  0.0
    220518 L01  0.5+  0.6-    220519 691  0.4+  0.2+
    220518 L01  0.1-  0.0     220519 691  0.1-  0.5+
    
    Ephemeris:
    2022 KD                  a,e,i = 1.07, 0.17, 15                  q = 0.8844
    Date    TT    R. A. (2000) Decl.     Delta      r    Elong.  Phase     V
    2022 04 20    05 03 42.2 -48 42 42   0.1177  0.9778    73.6    99.7    23.6
    ...
    2022 05 05    08 30 10.7 -52 34 24   0.05567 1.0198   100.2    76.7    21.1
    ...
    2022 05 13    12 01 51.9 -25 00 04   0.04589 1.0427   134.1    44.0    19.8
    ...
    2022 05 19    13 21 59.6 -00 48 33   0.06134 1.0599   140.9    37.0    20.2
    2022 05 20    13 30 34.2 +01 55 32   0.06517 1.0627   140.3    37.4    20.4
    2022 05 21    13 38 15.2 +04 20 05   0.06923 1.0656   139.5    38.1    20.5
    ...
    2022 05 27    14 11 25.4 +13 49 29   0.09676 1.0824   133.8    42.5    21.4
    ...
    2022 06 04    14 37 21.9 +19 17 36   0.1379  1.1042   127.7    46.6    22.3
    ...
    2022 06 19    15 06 43.3 +21 40 35   0.2198  1.1422   120.1    50.3    23.5
    
    M. P. C. Staff               (C) Copyright 2022 MPC           M.P.E.C. 2022-K15
    


    Read MPEC 2022-K14 Read MPEC 2022-K16


    MPEC number:

    Enter an MPEC number in one of the following forms:

    • 1997-B01 (the full form)
    • J97B01 (the packed version of the full form)
    • B01 (the abbreviated form)